Regional Weather Roundup
Issued by NWS

Home | Current Version | Previous Version | Graphics & Text | Print | Product List | Glossary On
Versions: 1 2 3 4 5 6 7 8 9 10 11 12 13 14 15 16 17 18 19 20 21 22 23 24 25 26 27 28 29 30 31 32 33 34 35 36 37 38 39 40 41 42 43 44 45 46 47 48 49 50
397
ASUS43 KOAX 241710
RWRNE

WEATHER ROUNDUP FOR NEBRASKA
NATIONAL WEATHER SERVICE OMAHA NE
1200 PM CDT FRI MAR 24 2017

NOTES: SATELLITE DATA IS BEING USED TO AUGMENT CLOUD COVER ABOVE
       12000 FEET.
       "FAIR" INDICATES FEW OR NO CLOUDS BELOW 12,000 FEET WITH NO
       SIGNIFICANT WEATHER AND/OR OBSTRUCTIONS TO VISIBILITY.

  * THESE STATIONS DO NOT REPORT WEATHER SUCH AS RAIN...SNOW OR FOG.

NEZ001>004-019>022-054>056-241800-
NEBRASKA PANHANDLE

CITY           SKY/WX    TMP DP  RH WIND       PRES   REMARKS
SCOTTSBLUFF    CLOUDY    51  35  54 N18G28    30.10R
CHADRON        PTSUNNY   50  38  63 N10       30.12S
KIMBALL        CLOUDY    44  38  82 N23G29    30.09R
SIDNEY         CLOUDY    43  36  76 N28G39    30.06R
$$

NEZ057>060-069>072-079>082-241800-
SOUTHWEST NEBRASKA

CITY           SKY/WX    TMP DP  RH WIND       PRES   REMARKS
NORTH PLATTE   CLOUDY    43  39  86 N30G43    29.93R
IMPERIAL       CLOUDY    43  40  89 N29G41    29.94R
LEXINGTON      CLOUDY    41  38  89 NE29G38   29.90R
MCCOOK         LGT RAIN  42  41  96 NE20      29.88R FOG
OGALLALA       CLOUDY    45  39  81 N29G37    30.00R
$$

NEZ005>010-023>029-035>040-094-241800-
NORTH CENTRAL NEBRASKA

CITY           SKY/WX    TMP DP  RH WIND       PRES   REMARKS
VALENTINE      MOSUNNY   48  35  60 N22G29    30.06S
AINSWORTH      CLOUDY    43  40  89 N17       30.05R
BROKEN BOW     RAIN      40  38  93 N29G38    29.96S WCI  29
O`NEILL        CLOUDY    38  37  97 N14       30.04R WCI  30
ORD            LGT RAIN  40  36  86 N21       29.98R FOG     WCI  30
THEDFORD       CLOUDY    42  38  84 N14G25    30.04R
$$

NEZ041-046>049-061>064-073>077-083>087-241800-
SOUTH CENTRAL NEBRASKA

CITY           SKY/WX    TMP DP  RH WIND       PRES   REMARKS
GRAND ISLAND   CLOUDY    41  40  96 N24G30    29.95R
AURORA         CLOUDY    42  40  95 N23G29    29.93R
HASTINGS       CLOUDY    43  40  89 N18G28    29.93R
HEBRON         CLOUDY    48  46  90 N16G23    29.89R
HOLDREGE       CLOUDY    41  38  91 N28G35    29.91R
KEARNEY *      CLOUDY    39  36  87 N24       29.94R WCI  28
YORK           CLOUDY    43  43 100 NE25      29.92R FOG
$$

NEZ011>018-030>034-042>045-241800-
NORTHEAST NEBRASKA

CITY           SKY/WX    TMP DP  RH WIND       PRES   REMARKS
NORFOLK        LGT RAIN  39  36  89 N21       29.98R FOG     WCI  29
ALBION         CLOUDY    40  38  90 N14G25    29.97R FOG     WCI  33
BLAIR          CLOUDY    45  44  94 N16       29.92R FOG
FREMONT        CLOUDY    43  43  98 N5        29.94S FOG
TEKAMAH        LGT RAIN  44  42  93 N16       29.96R FOG
WAYNE          DRIZZLE   40  39  97 N16G22    30.00R WCI  32
$$

NEZ050>053-065>068-078-088>093-241800-
SOUTHEAST NEBRASKA

CITY           SKY/WX    TMP DP  RH WIND       PRES   REMARKS
LINCOLN        CLOUDY    48  44  86 N17G24    29.92R
OMAHA EPPLEY   CLOUDY    48  43  82 N15       29.92R
BEATRICE       CLOUDY    52  49  90 NE22G28   29.87R FOG
FALLS CITY     CLOUDY    59  58  96 SE9       29.85S
NEBRASKA CITY  CLOUDY    55  54  97 N10       29.87R FOG
PLATTSMOUTH    CLOUDY    50  46  85 N14       29.90R
$$

NEZ044-045-051>053-067-241800-
OMAHA AREA

CITY           SKY/WX    TMP DP  RH WIND       PRES   REMARKS
OMAHA EPPLEY   CLOUDY    48  43  82 N15       29.92R
BLAIR          CLOUDY    45  44  94 N16       29.92R FOG
FREMONT        CLOUDY    43  43  98 N5        29.94S FOG
MILLARD        CLOUDY    50  47  88 N7        29.92R
OFFUTT AFB     CLOUDY    50  46  87 N10G17    29.90R
PLATTSMOUTH    CLOUDY    50  46  85 N14       29.90R
WAHOO          CLOUDY    45  42  91 N14G25    29.93R
$$




USA.gov is the U.S. government's official web portal to all federal, state and local government web resources and services.